TimeMDT,TemperatureF,Dew PointF,Humidity,Sea Level PressureIn,VisibilityMPH,Wind Direction,Wind SpeedMPH,Gust SpeedMPH,PrecipitationIn,Events,Conditions,WindDirDegrees,DateUTC
12:53 AM,75.0,53.1,46,29.95,10.0,North,3.5,-,N/A,,Mostly Cloudy,350,2013-09-07 06:53:00
1:53 AM,73.0,54.0,51,29.95,10.0,SW,4.6,-,N/A,,Mostly Cloudy,220,2013-09-07 07:53:00
2:53 AM,72.0,55.9,57,29.94,10.0,SW,4.6,-,N/A,,Mostly Cloudy,220,2013-09-07 08:53:00
3:53 AM,70.0,55.0,59,29.93,10.0,Calm,Calm,-,N/A,,Mostly Cloudy,0,2013-09-07 09:53:00
4:53 AM,72.0,55.9,57,29.91,10.0,SE,6.9,-,N/A,,Overcast,140,2013-09-07 10:53:00
5:53 AM,72.0,55.9,57,29.92,10.0,South,5.8,-,N/A,,Mostly Cloudy,170,2013-09-07 11:53:00
6:53 AM,73.0,54.0,51,29.94,10.0,Calm,Calm,-,N/A,,Mostly Cloudy,0,2013-09-07 12:53:00
7:53 AM,71.1,55.9,59,29.96,10.0,NNW,4.6,-,N/A,,Mostly Cloudy,340,2013-09-07 13:53:00
8:53 AM,78.1,54.0,43,29.95,10.0,Calm,Calm,-,N/A,,Mostly Cloudy,0,2013-09-07 14:53:00
9:53 AM,79.0,52.0,39,29.96,10.0,SSE,5.8,-,N/A,,Scattered Clouds,160,2013-09-07 15:53:00
10:53 AM,84.0,52.0,33,29.97,10.0,NNW,11.5,20.7,N/A,,Mostly Cloudy,340,2013-09-07 16:53:00
11:53 AM,82.9,55.0,38,29.97,10.0,NW,12.7,-,N/A,,Mostly Cloudy,310,2013-09-07 17:53:00
12:53 PM,86.0,52.0,31,29.94,10.0,North,9.2,-,N/A,,Mostly Cloudy,350,2013-09-07 18:53:00
1:53 PM,87.1,50.0,28,29.92,10.0,NNW,10.4,17.3,N/A,,Mostly Cloudy,340,2013-09-07 19:53:00
2:53 PM,84.0,53.1,34,29.91,10.0,NW,18.4,25.3,0.00,Rain,Light Rain,320,2013-09-07 20:53:00
3:53 PM,84.9,51.1,31,29.90,10.0,NNW,18.4,25.3,0.00,,Mostly Cloudy,340,2013-09-07 21:53:00
4:53 PM,81.0,51.1,35,29.95,10.0,WNW,11.5,-,N/A,,Overcast,300,2013-09-07 22:53:00
4:59 PM,80.6,51.8,37,30.13,10.0,West,13.8,-,0.00,Rain-Thunderstorm,Light Thunderstorms and Rain,270,2013-09-07 22:59:00
5:11 PM,75.2,60.8,61,30.16,10.0,West,16.1,-,0.00,Rain-Thunderstorm,Light Thunderstorms and Rain,260,2013-09-07 23:11:00
5:45 PM,68.0,59.0,73,30.20,1.8,Calm,Calm,-,0.05,Rain-Thunderstorm,Thunderstorms and Rain,0,2013-09-07 23:45:00
5:53 PM,68.0,59.0,73,30.07,1.8,South,3.5,-,0.10,Rain-Thunderstorm,Heavy Thunderstorms and Rain,180,2013-09-07 23:53:00
5:57 PM,68.0,59.0,73,30.21,3.0,South,6.9,-,0.02,Rain-Thunderstorm,Thunderstorms and Rain,170,2013-09-07 23:57:00
6:10 PM,66.2,59.0,78,30.22,7.0,SSE,8.1,-,0.05,Rain,Light Rain,150,2013-09-08 00:10:00
6:53 PM,68.0,60.1,76,30.07,10.0,SE,10.4,-,0.07,,Overcast,140,2013-09-08 00:53:00
7:53 PM,68.0,60.1,76,29.97,10.0,South,5.8,-,0.00,,Mostly Cloudy,190,2013-09-08 01:53:00
8:53 PM,68.0,57.9,70,29.97,10.0,SW,8.1,-,N/A,,Mostly Cloudy,220,2013-09-08 02:53:00
9:53 PM,68.0,60.1,76,29.98,10.0,ESE,5.8,-,0.00,,Mostly Cloudy,120,2013-09-08 03:53:00
10:53 PM,66.9,59.0,76,29.96,10.0,Calm,Calm,-,N/A,,Mostly Cloudy,0,2013-09-08 04:53:00
11:53 PM,66.9,59.0,76,29.95,10.0,South,4.6,-,N/A,,Mostly Cloudy,190,2013-09-08 05:53:00